Погода Тивяку

Погода Тивяку : погода сейчас, прогноз погоды и архив. Всё, что Вы хотите узнать о погоде Тивяку!

Хотите узнать прогноз погоды Тивяку? Тогда Вам сюда: Погода Тивяку

Поиск расширенной информации на нашем сайте:

Другие новости

Новости СМИ2

Главная страница сайта

Новости сайта

03.07.2017

Напоминаем, что на нашем специализированном сайте Метеоцентр.Азия вы можете получить высокодетализированные автоматические прогнозы погоды по пунктам России, СНГ и мира в авиационном формате (включающие направление и скорость ветра, видимость, явления погоды, количество и форму облачности, нижнюю и верхнюю границу облачности).


Погода Тивяку - сегодня

Время (UTC), дата Ветер
(°,м/с) 
Видим.   Явления Облачность Т
(°С)
Тd
(°С)
f(%) Тe
(°С)
Pmin
(гПа)
dP
(гПа)
Po
(мм)
O2
(г/м3)
Тmin Tmax R s Состояние
почвы
18 15.04.18 тихо ()   20000 м    ясно 
-4.9 -5.3 97 -5  1010  0.7  720  296           
21 15.04.18 240 (ЮЗ) 0500 м  туман  ясно 
-4 -4.4 97 -4  1011  1.2  721  295  -6.1      19  равномерный
мокрый или
старый снег
100% 
00 16.04.18 тихо ()   20000 м  {туман}  ясно 
+2.4 -1.4 76 +2  1009.9  0.1  721  288           
03 16.04.18 270 (З) 20000 м    ясно 
+9 -8.7 28 +9  1007.8  -1  720  282           
06 16.04.18 250 (З) 20000 м    6/6 600 м 
[Cu hum]
+10 -7.3 29 +10  1006.9  -0.6  719  280           
09 16.04.18 240 (ЮЗ) 20000 м    ясно 
+8.3 -7.8 31 +8  1007.9  0.7  720  282    +10.4       
12 16.04.18 тихо ()   20000 м    3/0 средняя 
[Ac trans]
+1.7 -6.4 55 +2  1011.2  721  289           
15 16.04.18 230 (ЮЗ) 20000 м    ясно 
+6.2 -5.4 43 +6  1011  0.6  722  285           
18 16.04.18 240 (ЮЗ) 20000 м    ясно 
+5.6 -6.8 40 +5  1011.6  0.4  722  286           
00 17.04.18 160 (Ю) 20000 м    8/0 верхняя 
[Cs]
+9.1 -5.4 35 +9  1011.8  -0.2  723  282           
03 17.04.18 170 (Ю) 20000 м    8/3 600 м кучево-дожд., средняя 
[Cb cap|As trans]
+13.1 -6.6 25 +13  1009.1  -0.2  721  278           
06 17.04.18 230 (ЮЗ) 20000 м    8/0 верхняя 
[Cs]
+14.9 -5.9 23 +15  1006.1  -2.5  719  275           
12 17.04.18 тихо ()   20000 м    6/0 верхняя 
[Cs]
+4.3 -2.7 60 +4  1009.3  0.8  720  286           
15 17.04.18 тихо ()   20000 м    6/0 верхняя 
[Cs]
+0.3 -3.2 77 1010.6  0.5  721  290           
18 17.04.18 тихо ()   н/о    н/о 
-2.1 -3.8 88 -2  1010.2  -0.8  720  293           
21 17.04.18 тихо ()   20000 м    10/6 600 м средняя 
[Sc|As op]
-1.3 -2.9 89 -1  1010.6  0.6  721  292  -2.2      мокрый или
старый снег
50-90% 
00 18.04.18 тихо ()   20000 м  слаб. дождь  10/6 600 м средняя 
[Sc|As op]
+5.4 +0.8 72 +5  1009.5  0.1  721  285           
03 18.04.18 150 (ЮВ) 20000 м  {дождь}  10/6 600 м средняя 
[Sc|As op]
+11.4 +0.7 48 +13  1007.3  0.1  720  278           
06 18.04.18 240 (ЮЗ) 20000 м  {дождь}  10/10 600 м 
[Sc]
+12.7 +2.4 49 +14  1006.1  -0.9  719  276           
12 18.04.18 тихо ()   20000 м    ясно 
+0.8 -0.3 92 +1  1009.1  720  289           
15 18.04.18 тихо ()   20000 м    4/4 600 м 
[Sc]
-1.4 -1.9 96 -1  1010.2  0.7  720  292           
18 18.04.18 тихо ()   20000 м    ясно 
-2.9 -3.3 97 -3  1010.5  720  294           
00 19.04.18 тихо ()   20000 м    3/0 верхняя 
[Ci fib]
+8 +2.2 67 +8  1009  -0.2  721  282           
03 19.04.18 250 (З) 20000 м    10/0 верхняя 
[Cs]
+16.2 -8.1 18 +17  1007.1  -0.2  720  275           
06 19.04.18 230 (ЮЗ) 20000 м    10/0 верхняя 
[Cs]
+16.9 -3.7 24 +18  1006.1  -0.9  720  273           
Время (UTC), дата Ветер
(°,м/с) 
Видим.   Явления Облачность Т
(°С)
Тd
(°С)
f(%) Тe
(°С)
Pmin
(гПа)
dP
(гПа)
Po
(мм)
O2
(г/м3)
Тmin Tmax R s Состояние
почвы

Для получения пояснительной информации подведите курсор к названию столбца.

ПОГОДА Тивяку - архив

Всё, что Вы хотите узнать о погоде Тивяку - удобно и подробно!

Выберите нужную дату (начиная с 1 января 2015* года) и нажмите кнопку "Найти".
Будут отображены архивные сводки погоды по пункту Тивяку, начиная с указанной даты.


Отображать данные в формате CSV (для использования в таблицах Excel)


Внимание! Наш архив погоды предназначен исключительно для личного некоммерческого использования в познавательных целях. Если Вам необходимы официальные справки о состоянии погоды (для производственных, юридических, коммерческих и т.п. целей), обращайтесь в органы Росгидромета.

*Примечание: данная дата относится к архиву по метеостанциям СССР (Россия, СНГ, Балтия).
Архив по метеостанциям Зарубежной Европы и Азии (кроме Китая) хранится 10 дней, по другим регионам земного шара (Китай, Африка, Америка, Австралия, Океания) - 1 день.

Тивяку - район местоположения метеостанции


Название, широта, долгота, высота метеостанции:
Тивяку 48.6°ш. 137.1°д. 403 м над ур. моря [Российская Федерация]

Дополнительная информация

В oтличие oт бoльшинства пoгoдных сайтoв мы публикуем пoдрoбную метеoинфoрмацию в детальнoм прoфессиoнальнoм фoрмате.

Характеристики температуры и влажнoсти вoздуха измеряются на высoте 2 м в тени вдали oт зданий и деревьев.
Скoрoсть ветра измеряется на высoте 10 м (на урoвне рoста челoвека скoрoсть ветра ниже в 1.5-2 раза). Если метеoстанция нахoдится в гoрoде или в лесу, тo скoрoсть ветра занижена на 2-4 м/с пo сравнению с oткрытым местoм. Скoрoсть ветра над акватoриями крупных рек и oзёр, а также на вершинах хoлмoв на 2-5 м/с выше, чем в oбычных услoвиях.
Атмoсфернoе давление в разных тoчках местнoсти мoжет значительнo oтличаться oт давления на метеoстанции, в зависимoсти oт услoвий рельефа (при пoдъёме на 10 м давление пoнижается примернo на 1 мм рт.ст.).